RYR1234 LCPH-LIRF

Flight info

Callsign RYR1234
Flight time N/A
Altitude 33000
Route GENOS DCT TOSKA DCT KUGGI DCT VARDI DCT TIGRA DCT MOKTO DCT DOGUS DCT EKTOL DCT IPKAM DCT TEA DCT SIPRO Z803 LAT
Aircraft B738/M-SDE2E3FGHIRWXY/LB1

Departure

Time 2026-04-20 16:13
Airport Paphos International Airport (LCPH)

Arrival

Time N/A
Airport Rome–Fiumicino Leonardo da Vinci International Airport (LIRF)
Time Latitude Longitude Altitude Speed Heading
2026-04-20 15:39 34.71436 32.48601 35 ft 0 kts
2026-04-20 15:57 34.71426 32.48601 33 ft 4 kts
2026-04-20 15:57 34.71404 32.48600 32 ft 4 kts
2026-04-20 15:57 34.71380 32.48588 31 ft 4 kts 46°
2026-04-20 15:57 34.71367 32.48567 31 ft 1 kts 65°
2026-04-20 16:04 34.71387 32.48619 35 ft 10 kts 65°
2026-04-20 16:04 34.71403 32.48661 35 ft 10 kts 65°
2026-04-20 16:05 34.71434 32.48737 33 ft 10 kts 63°
2026-04-20 16:05 34.71462 32.48822 33 ft 12 kts 60°
2026-04-20 16:05 34.71530 32.48856 32 ft 12 kts 320°
2026-04-20 16:05 34.71555 32.48762 35 ft 12 kts 291°
2026-04-20 16:06 34.71583 32.48672 35 ft 11 kts 290°
2026-04-20 16:06 34.71610 32.48584 36 ft 11 kts 290°
2026-04-20 16:06 34.71636 32.48499 36 ft 11 kts 290°
2026-04-20 16:06 34.71661 32.48417 36 ft 10 kts 295°
2026-04-20 16:07 34.71707 32.48378 36 ft 6 kts 13°
2026-04-20 16:07 34.71714 32.48381 36 ft 0 kts 16°
2026-04-20 16:10 34.71718 32.48382 36 ft 8 kts 16°
2026-04-20 16:10 34.71858 32.48436 36 ft 35 kts 19°
2026-04-20 16:10 34.72023 32.48441 36 ft 13 kts 320°
2026-04-20 16:11 34.72089 32.48196 37 ft 62 kts 287°
2026-04-20 16:11 34.72252 32.47630 37 ft 69 kts 290°
2026-04-20 16:11 34.72369 32.47218 40 ft 21 kts 283°
2026-04-20 16:11 34.72375 32.47179 40 ft 0 kts 277°
2026-04-20 16:12 34.72350 32.47161 39 ft 8 kts 194°
2026-04-20 16:12 34.72340 32.47157 39 ft 0 kts 198°
2026-04-20 16:12 34.72318 32.47148 39 ft 12 kts 198°
2026-04-20 16:12 34.72229 32.47146 37 ft 14 kts 134°
2026-04-20 16:13 34.72140 32.47421 39 ft 70 kts 110°
2026-04-20 16:13 34.71882 32.48259 36 ft 139 kts 110°
2026-04-20 16:13 34.71480 32.49596 43 ft 195 kts 109°
2026-04-20 16:13 34.71011 32.51169 712 ft 205 kts 106°
2026-04-20 16:14 34.70378 32.52866 1078 ft 237 kts 126°
2026-04-20 16:14 34.69105 32.54212 1436 ft 252 kts 157°
2026-04-20 16:14 34.67390 32.54664 2111 ft 257 kts 187°
2026-04-20 16:14 34.65705 32.54003 2753 ft 256 kts 218°
2026-04-20 16:15 34.64538 32.52414 3409 ft 255 kts 248°
2026-04-20 16:15 34.64141 32.50323 4057 ft 256 kts 271°
2026-04-20 16:15 34.64224 32.48149 4724 ft 261 kts 277°
2026-04-20 16:15 34.64373 32.45955 5350 ft 267 kts 276°
2026-04-20 16:16 34.64523 32.43692 5998 ft 268 kts 276°
2026-04-20 16:16 34.64661 32.41458 6602 ft 263 kts 276°
2026-04-20 16:16 34.64791 32.39250 7168 ft 260 kts 276°
2026-04-20 16:16 34.64915 32.37079 7774 ft 256 kts 276°
2026-04-20 16:17 34.65035 32.34938 8385 ft 251 kts 276°
2026-04-20 16:17 34.65157 32.32779 8627 ft 265 kts 276°
2026-04-20 16:17 34.65283 32.30531 8890 ft 274 kts 276°
2026-04-20 16:17 34.65411 32.28207 9342 ft 277 kts 276°
2026-04-20 16:18 34.65539 32.25869 9838 ft 278 kts 276°
2026-04-20 16:18 34.65667 32.23512 9904 ft 280 kts 276°
2026-04-20 16:18 34.65795 32.21153 9946 ft 279 kts 276°
2026-04-20 16:18 34.65922 32.18795 9932 ft 280 kts 276°
2026-04-20 16:19 34.66051 32.16442 10107 ft 275 kts 277°
2026-04-20 16:19 34.66200 32.14183 10901 ft 260 kts 277°
2026-04-20 16:19 34.66353 32.12036 11457 ft 259 kts 278°
2026-04-20 16:19 34.66518 32.09791 11658 ft 276 kts 278°
2026-04-20 16:20 34.66694 32.07393 11806 ft 294 kts 277°
2026-04-20 16:20 34.66878 32.04843 11947 ft 312 kts 277°
2026-04-20 16:20 34.67070 32.02141 12090 ft 329 kts 277°
2026-04-20 16:20 34.67269 31.99298 12221 ft 346 kts 277°
2026-04-20 16:21 34.67477 31.96313 12353 ft 362 kts 277°
2026-04-20 16:21 34.67692 31.93200 12512 ft 376 kts 277°
2026-04-20 16:21 34.67916 31.90008 12962 ft 380 kts 277°
2026-04-20 16:21 34.68217 31.86857 13566 ft 379 kts 279°
2026-04-20 16:22 34.68626 31.83679 14084 ft 381 kts 281°
2026-04-20 16:22 34.69124 31.80496 14506 ft 384 kts 283°
2026-04-20 16:22 34.69697 31.77304 14956 ft 387 kts 284°
2026-04-20 16:22 34.70287 31.74102 15471 ft 388 kts 284°
2026-04-20 16:23 34.70865 31.70885 15971 ft 390 kts 283°
2026-04-20 16:23 34.71419 31.67677 16399 ft 393 kts 283°
2026-04-20 16:23 34.71964 31.64400 16819 ft 396 kts 282°
2026-04-20 16:23 34.72498 31.61100 17280 ft 398 kts 282°
2026-04-20 16:24 34.73025 31.57782 17758 ft 400 kts 282°
2026-04-20 16:24 34.73549 31.54447 18194 ft 403 kts 282°
2026-04-20 16:24 34.74074 31.51090 18556 ft 406 kts 281°
2026-04-20 16:24 34.74595 31.47750 18956 ft 406 kts 281°
2026-04-20 16:25 34.75121 31.44366 19422 ft 406 kts 281°
2026-04-20 16:25 34.75647 31.40982 19845 ft 407 kts 281°
2026-04-20 16:25 34.76173 31.37588 20201 ft 410 kts 281°
2026-04-20 16:25 34.76702 31.34174 20557 ft 412 kts 281°
2026-04-20 16:26 34.77234 31.30741 20942 ft 413 kts 281°
2026-04-20 16:26 34.77763 31.27314 21346 ft 413 kts 281°
2026-04-20 16:26 34.78294 31.23870 21713 ft 415 kts 281°
2026-04-20 16:26 34.78825 31.20414 22061 ft 416 kts 281°
2026-04-20 16:27 34.79358 31.16947 22403 ft 418 kts 281°
2026-04-20 16:27 34.79891 31.13467 22752 ft 419 kts 281°
2026-04-20 16:27 34.80425 31.09975 23089 ft 420 kts 281°
2026-04-20 16:27 34.80960 31.06474 23410 ft 422 kts 281°
2026-04-20 16:28 34.81489 31.02997 23703 ft 423 kts 281°
2026-04-20 16:28 34.82026 30.99464 23963 ft 424 kts 281°
2026-04-20 16:28 34.82563 30.95924 24227 ft 426 kts 281°
2026-04-20 16:28 34.83101 30.92371 24482 ft 427 kts 281°
2026-04-20 16:29 34.83640 30.88807 24732 ft 428 kts 281°
2026-04-20 16:29 34.84178 30.85234 24985 ft 429 kts 281°
2026-04-20 16:29 34.84717 30.81654 25234 ft 431 kts 281°
2026-04-20 16:29 34.85256 30.78064 25472 ft 432 kts 281°
2026-04-20 16:30 34.85789 30.74510 25695 ft 433 kts 281°
2026-04-20 16:30 34.86335 30.70855 25936 ft 434 kts 281°
2026-04-20 16:30 34.86870 30.67272 26167 ft 435 kts 281°
2026-04-20 16:30 34.87412 30.63634 26472 ft 434 kts 281°
2026-04-20 16:31 34.87947 30.60032 26878 ft 431 kts 281°
2026-04-20 16:31 34.88477 30.56452 27262 ft 428 kts 281°
2026-04-20 16:31 34.89005 30.52881 27558 ft 428 kts 281°
2026-04-20 16:31 34.89532 30.49312 27805 ft 428 kts 281°
2026-04-20 16:32 34.90060 30.45733 28101 ft 428 kts 281°
2026-04-20 16:32 34.90576 30.42222 28480 ft 425 kts 281°
2026-04-20 16:32 34.91095 30.38681 28853 ft 423 kts 281°
2026-04-20 16:32 34.91611 30.35158 29194 ft 421 kts 281°
2026-04-20 16:33 34.92124 30.31645 29489 ft 420 kts 281°
2026-04-20 16:33 34.92636 30.28133 29755 ft 420 kts 281°
2026-04-20 16:33 34.93147 30.24623 30045 ft 419 kts 281°
2026-04-20 16:33 34.93654 30.21132 30317 ft 418 kts 281°
2026-04-20 16:34 34.94159 30.17646 30563 ft 417 kts 281°
2026-04-20 16:34 34.94663 30.14167 30749 ft 417 kts 281°
2026-04-20 16:34 34.95161 30.10719 30934 ft 418 kts 281°
2026-04-20 16:34 34.95662 30.07241 31181 ft 416 kts 281°
2026-04-20 16:35 34.96164 30.03761 31462 ft 414 kts 282°
2026-04-20 16:35 34.96796 30.00334 31657 ft 414 kts 286°
2026-04-20 16:35 34.97719 29.97002 31759 ft 416 kts 295°
2026-04-20 16:35 34.99203 29.93961 31859 ft 418 kts 303°
2026-04-20 16:36 35.00865 29.91130 32296 ft 412 kts 304°
2026-04-20 16:36 35.02511 29.88288 32554 ft 410 kts 302°
2026-04-20 16:36 35.05416 29.82223 32645 ft 415 kts 297°
2026-04-20 16:37 35.06782 29.79134 32927 ft 412 kts 297°
2026-04-20 16:37 35.08152 29.76051 32947 ft 415 kts 297°
2026-04-20 16:37 35.10963 29.69876 32942 ft 415 kts 298°
2026-04-20 16:38 35.13777 29.63834 32940 ft 410 kts 298°
2026-04-20 16:38 35.16604 29.57809 32945 ft 407 kts 298°
2026-04-20 16:39 35.19409 29.51827 32952 ft 405 kts 298°
2026-04-20 16:39 35.22204 29.45852 32951 ft 404 kts 298°
2026-04-20 16:40 35.25000 29.39865 32970 ft 405 kts 298°
2026-04-20 16:40 35.27785 29.33890 32961 ft 407 kts 298°
2026-04-20 16:41 35.30598 29.27844 32969 ft 410 kts 298°
2026-04-20 16:41 35.33427 29.21751 32972 ft 412 kts 298°
2026-04-20 16:42 35.36266 29.15628 32961 ft 414 kts 298°
2026-04-20 16:42 35.39093 29.09520 32966 ft 414 kts 298°
2026-04-20 16:43 35.41934 29.03370 32974 ft 415 kts 298°
2026-04-20 16:43 35.44299 28.98243 32963 ft 414 kts 298°
2026-04-20 16:44 35.47132 28.92090 32958 ft 413 kts 298°
2026-04-20 16:44 35.49954 28.85950 32960 ft 411 kts 298°
2026-04-20 16:45 35.52756 28.79843 32959 ft 410 kts 298°
2026-04-20 16:45 35.55527 28.73790 32960 ft 408 kts 298°
2026-04-20 16:46 35.58302 28.67721 32960 ft 407 kts 298°
2026-04-20 16:46 35.61071 28.61653 32959 ft 406 kts 298°
2026-04-20 16:47 35.63833 28.55589 32962 ft 406 kts 298°
2026-04-20 16:47 35.66588 28.49529 32965 ft 406 kts 298°
2026-04-20 16:48 35.69336 28.43474 32963 ft 408 kts 298°
2026-04-20 16:48 35.72105 28.37362 32970 ft 409 kts 298°
2026-04-20 16:49 35.74876 28.31234 32965 ft 410 kts 298°
2026-04-20 16:49 35.77649 28.25092 32962 ft 411 kts 298°
2026-04-20 16:50 35.80404 28.18977 32974 ft 411 kts 298°
2026-04-20 16:50 35.83179 28.12808 32963 ft 411 kts 298°
2026-04-20 16:51 35.85953 28.06629 32967 ft 411 kts 298°
2026-04-20 16:51 35.88714 28.00466 32969 ft 410 kts 298°
2026-04-20 16:52 35.91472 27.94301 32971 ft 409 kts 298°
2026-04-20 16:52 35.94200 27.88192 32976 ft 409 kts 298°
2026-04-20 16:53 35.96943 27.82037 32982 ft 408 kts 298°
2026-04-20 16:53 35.99681 27.75883 32974 ft 409 kts 298°
2026-04-20 16:54 36.02419 27.69714 32978 ft 408 kts 298°
2026-04-20 16:54 36.05132 27.63594 32985 ft 408 kts 298°
2026-04-20 16:55 36.07859 27.57430 32979 ft 408 kts 298°
2026-04-20 16:55 36.10584 27.51257 32989 ft 408 kts 298°
2026-04-20 16:56 36.13308 27.45079 32974 ft 409 kts 298°
2026-04-20 16:56 36.16010 27.38936 32990 ft 409 kts 298°
2026-04-20 16:57 36.18729 27.32745 32985 ft 409 kts 298°
2026-04-20 16:57 36.21445 27.26546 32992 ft 409 kts 298°
2026-04-20 16:58 36.24163 27.20335 32992 ft 410 kts 298°
2026-04-20 16:58 36.26861 27.14155 32985 ft 410 kts 298°
2026-04-20 16:59 36.29573 27.07932 33000 ft 410 kts 298°
2026-04-20 16:59 36.32289 27.01690 32990 ft 411 kts 298°
2026-04-20 17:00 36.36322 26.92397 33007 ft 411 kts 298°
2026-04-20 17:01 36.39028 26.86146 32993 ft 411 kts 298°
2026-04-20 17:01 36.41733 26.79887 33001 ft 410 kts 298°
2026-04-20 17:02 36.44413 26.73672 33009 ft 411 kts 298°
2026-04-20 17:02 36.47111 26.67406 33017 ft 411 kts 298°
2026-04-20 17:03 36.49806 26.61134 32994 ft 411 kts 298°
2026-04-20 17:03 36.52502 26.54848 33004 ft 411 kts 298°
2026-04-20 17:04 36.55146 26.48670 33005 ft 411 kts 298°
2026-04-20 17:04 36.57872 26.42289 32997 ft 411 kts 298°
2026-04-20 17:05 36.60557 26.35994 33004 ft 411 kts 298°
2026-04-20 17:05 36.63222 26.29732 32998 ft 411 kts 298°
2026-04-20 17:06 36.65901 26.23424 32996 ft 411 kts 298°
2026-04-20 17:06 36.68569 26.17130 33002 ft 411 kts 298°
2026-04-20 17:07 36.71228 26.10847 33006 ft 411 kts 298°
2026-04-20 17:07 36.73891 26.04539 33004 ft 411 kts 298°
2026-04-20 17:08 36.76551 25.98228 33004 ft 411 kts 298°
2026-04-20 17:08 36.79207 25.91915 33002 ft 411 kts 298°
2026-04-20 17:09 36.81853 25.85613 33013 ft 410 kts 298°
2026-04-20 17:09 36.84479 25.79346 33015 ft 410 kts 298°
2026-04-20 17:10 36.87120 25.73030 33012 ft 410 kts 298°
2026-04-20 17:10 36.89757 25.66713 32996 ft 410 kts 298°
2026-04-20 17:11 36.92391 25.60391 32985 ft 410 kts 298°
2026-04-20 17:11 36.95022 25.54061 32997 ft 410 kts 298°
2026-04-20 17:12 36.97653 25.47721 33008 ft 410 kts 298°
2026-04-20 17:12 37.00277 25.41384 32990 ft 411 kts 298°
2026-04-20 17:13 37.02902 25.35032 32990 ft 411 kts 298°
2026-04-20 17:13 37.05511 25.28709 32990 ft 410 kts 298°
2026-04-20 17:14 37.08129 25.22349 32994 ft 410 kts 298°
2026-04-20 17:14 37.10742 25.15989 32998 ft 410 kts 298°
2026-04-20 17:15 37.13355 25.09615 32985 ft 411 kts 298°
2026-04-20 17:15 37.15946 25.03284 32999 ft 410 kts 298°
2026-04-20 17:16 37.18544 24.96922 32984 ft 410 kts 298°
2026-04-20 17:16 37.21145 24.90540 33000 ft 410 kts 298°
2026-04-20 17:17 37.23737 24.84170 32984 ft 410 kts 298°
2026-04-20 17:17 37.26312 24.77825 32999 ft 410 kts 298°
2026-04-20 17:18 37.28899 24.71440 32988 ft 410 kts 298°
2026-04-20 17:18 37.31486 24.65040 32994 ft 410 kts 298°
2026-04-20 17:19 37.34069 24.58639 32990 ft 410 kts 298°
2026-04-20 17:19 37.36636 24.52266 32987 ft 411 kts 297°
2026-04-20 17:20 37.39212 24.45855 32994 ft 411 kts 297°
2026-04-20 17:20 37.41788 24.39433 33003 ft 411 kts 298°
2026-04-20 17:21 37.44369 24.32982 32975 ft 412 kts 298°
2026-04-20 17:21 37.46933 24.26564 32990 ft 412 kts 298°
2026-04-20 17:22 37.49505 24.20113 32974 ft 412 kts 298°
2026-04-20 17:22 37.52077 24.13647 32980 ft 412 kts 297°
2026-04-20 17:23 37.54634 24.07206 32973 ft 412 kts 297°
2026-04-20 17:23 37.57199 24.00731 32981 ft 412 kts 297°
2026-04-20 17:24 37.59760 23.94254 32968 ft 413 kts 297°
2026-04-20 17:24 37.62315 23.87776 32969 ft 413 kts 297°
2026-04-20 17:25 37.64854 23.81326 32972 ft 413 kts 297°
2026-04-20 17:25 37.67409 23.74824 32948 ft 413 kts 297°
2026-04-20 17:26 37.69961 23.68315 32966 ft 413 kts 297°
2026-04-20 17:26 37.72495 23.61838 32966 ft 413 kts 297°
2026-04-20 17:27 37.75041 23.55314 32965 ft 413 kts 297°
2026-04-20 17:27 37.77587 23.48781 32979 ft 414 kts 297°
2026-04-20 17:28 37.80199 23.42334 32944 ft 414 kts 302°
2026-04-20 17:28 37.83415 23.36294 32968 ft 413 kts 308°
2026-04-20 17:29 37.87012 23.30670 32978 ft 413 kts 310°
2026-04-20 17:29 37.90662 23.25031 32979 ft 414 kts 309°
2026-04-20 17:30 37.94225 23.19265 32967 ft 415 kts 308°
2026-04-20 17:30 37.97732 23.13436 32972 ft 416 kts 308°
2026-04-20 17:31 38.01204 23.07616 32956 ft 416 kts 308°
2026-04-20 17:31 38.04695 23.01753 32973 ft 417 kts 308°
2026-04-20 17:32 38.08191 22.95876 32975 ft 417 kts 308°
2026-04-20 17:32 38.11102 22.90978 32974 ft 417 kts 308°
2026-04-20 17:33 38.14601 22.85080 32961 ft 417 kts 308°
2026-04-20 17:33 38.18066 22.79229 32980 ft 416 kts 308°
2026-04-20 17:34 38.21547 22.73340 32986 ft 416 kts 308°
2026-04-20 17:34 38.25025 22.67445 32968 ft 416 kts 308°
2026-04-20 17:35 38.28501 22.61543 32981 ft 415 kts 308°
2026-04-20 17:35 38.31948 22.55681 32972 ft 415 kts 308°
2026-04-20 17:36 38.35408 22.49785 32965 ft 415 kts 308°
2026-04-20 17:36 38.38864 22.43886 32974 ft 415 kts 308°
2026-04-20 17:37 38.42310 22.37993 32987 ft 414 kts 307°
2026-04-20 17:37 38.45740 22.32116 33007 ft 414 kts 307°
2026-04-20 17:38 38.49152 22.26259 33004 ft 414 kts 307°
2026-04-20 17:38 38.52590 22.20348 32996 ft 414 kts 307°
2026-04-20 17:39 38.56024 22.14432 33019 ft 414 kts 307°
2026-04-20 17:39 38.59463 22.08497 33017 ft 414 kts 307°
2026-04-20 17:40 38.62877 22.02593 33021 ft 415 kts 307°
2026-04-20 17:40 38.66312 21.96645 33019 ft 416 kts 307°
2026-04-20 17:41 38.69602 21.90535 33031 ft 417 kts 303°
2026-04-20 17:41 38.72662 21.84199 33030 ft 418 kts 303°
2026-04-20 17:42 38.75683 21.77874 33027 ft 419 kts 303°
2026-04-20 17:42 38.78754 21.71521 33070 ft 418 kts 303°
2026-04-20 17:43 38.81846 21.65163 33075 ft 418 kts 303°
2026-04-20 17:43 38.84917 21.58852 33052 ft 419 kts 303°
2026-04-20 17:44 38.88004 21.52497 33038 ft 420 kts 303°